METEOR M2-2

导读 | 星芒AI

METEOR-M 2-2 是俄罗斯一颗气象卫星,属于 METEOR-M 系列第二代卫星,于 2014 年发射。该卫星主要用于地球观测,提供气象、水文、环境监测和灾害预警等数据。它搭载多种遥感仪器,能够收集云层、地表温度、海洋状况等信息,并支持全球天气预报和气候研究。卫星运行在近地轨道,具备高分辨率成像能力,是俄罗斯国家气象系统的重要组成部分。

基本信息
目录编号:
44387
目录名称:
METEOR M2-2
国际标识:
2019-038A
轨道中心:
EARTH
卫星名称:
METEOR M2-2
卫星全名:
--
卫星状态:
在轨 (已飞行2308 天)
发射日期:
2019-07-05 UTC
国别 :
俄罗斯(独联体) (CIS)
星等 :
--
轨道信息
数据来源 国际轨道数据 AOE轨道数据
星历时间 2025-10-28T23:15:47+0800
16小时前
查看轨道信息
2025-10-28T16:00:00+0800
23小时前
查看轨道信息
半长轴 7189.112km 7189.118km
偏心率 0.0001171 0.0001028
轨道倾角 98.893° 98.894°
近地点辐角 18.093° 11.135°
升交点赤经 280.823° 280.518°
平近点角 342.029° 238.188°
近地点 810.135km 810.243km
远地点 811.819km 811.723km
周期 101.105分钟 101.105分钟
每日圈数 14.242622 14.242603
详细信息
使用方式:
暂无
2D轨道图
3D轨道图
轨道高度分析图
轨道倾角分析图
轨道综合分析图
查看轨道综合分析图